Regional Weather Roundup
Issued by NWS

Home | Current Version | Previous Version | Text Only | Print | Product List | Glossary On
Versions: 1 2 3 4 5 6 7 8 9 10 11 12 13 14 15 16 17 18 19 20 21 22 23 24 25 26 27 28 29 30 31 32 33 34 35 36 37 38 39 40 41 42 43 44 45 46 47 48 49 50
000
ASUS45 KPSR 062300
RWRAZ

ARIZONA REGIONAL HOURLY WEATHER ROUNDUP
NATIONAL WEATHER SERVICE PHOENIX AZ
400 PM MST WED MAY 06 2015

NOTE: FAIR INDICATES FEW OR NO CLOUDS BELOW 12,000 FEET WITH NO
SIGNIFICANT WEATHER AND/OR OBSTRUCTIONS TO VISIBILITY.

AZZ001>003-036-070000-
NORTHWEST ARIZONA

CITY           SKY/WX    TMP DP  RH WIND       PRES   REMARKS
KINGMAN        MOSUNNY   77  30  17 SW17G28   29.74F
$$

AZZ004>008-015-016-018-070000-
NORTH CENTRAL ARIZONA

CITY           SKY/WX    TMP DP  RH WIND       PRES   REMARKS
GRAND CANYON   PTSUNNY   60  26  27 SW13G22   29.87F
WILLIAMS       MOSUNNY   61  27  27 S20G25    29.96F
PRESCOTT       MOSUNNY   68  24  19 S18       29.85F
FLAGSTAFF      NOT AVBL
PAYSON         MOSUNNY   68  28  22 S15G22    29.88F
PAGE           MOSUNNY   75  27  17 SW10G18   29.70F
$$

AZZ009>014-017-070000-
NORTHEAST ARIZONA

CITY           SKY/WX    TMP DP  RH WIND       PRES   REMARKS
WINSLOW        NOT AVBL
SAINT JOHNS    MOSUNNY   67  17  14 SW24G30   29.85F
WINDOW ROCK    CLOUDY    60  34  37 W18G24    29.89F
$$

AZZ023-070000-
GREATER PHOENIX AREA

CITY           SKY/WX    TMP DP  RH WIND       PRES   REMARKS
PHOENIX        PTSUNNY   89  29  11 S7        29.65F
GLENDALE       PTSUNNY   88  34  14 SW14      29.68F
DEER VALLEY    SUNNY     84  29  13 W6G17     29.68F
SCOTTSDALE     MOSUNNY   84  30  14 S10       29.70F
MESA-FALCON    PTSUNNY   84  30  14 S9        29.69F
MESA-GATEWAY   PTSUNNY   84  32  15 NW7       29.70F
CHANDLER       MOSUNNY   86  28  12 S14       29.67F
$$

AZZ027-028-070000-
SOUTHWEST MARICOPA COUNTY AND PINAL COUNTY

CITY           SKY/WX    TMP DP  RH WIND       PRES   REMARKS
CASA GRANDE    SUNNY     88  32  13 SW20G28   29.67F
$$

AZZ503-504-507>509-070000-
SOUTHEAST ARIZONA

CITY           SKY/WX    TMP DP  RH WIND       PRES   REMARKS
TUCSON         SUNNY     86  23  10 SW20G29   29.76F
RYAN FIELD       N/A     88  32  13 MISG      29.74F
NOGALES        SUNNY     79  26  14 S14G28    29.84S
SIERRA VISTA   SUNNY     76  13   9 SW15G22   29.87F
SAFFORD        MOSUNNY   86  26  11 NW16G25   29.73F
$$

AZZ020-021-025-026-031-070000-
SOUTHWEST ARIZONA

CITY           SKY/WX    TMP DP  RH WIND       PRES   REMARKS
YUMA           NOT AVBL
$$

CAZ031-033-041-043-047-048-061-070000-
SOUTHERN CALIFORNIA

CITY           SKY/WX    TMP DP  RH WIND       PRES   REMARKS
DOWNTOWN L.A.  SUNNY     66  50  56 VRB5      29.84F
L.A. AIRPORT   MOSUNNY   63  50  62 W16       29.86F
SAN DIEGO      PTSUNNY   65  51  60 W12       29.89F
BURBANK        PTSUNNY   65  47  52 VRB5      29.83F
ONTARIO        CLOUDY    66  46  48 W9        29.83F
RIVERSIDE      PTSUNNY   68  47  46 W10       29.83F
PALM SPRINGS   SUNNY     83  40  21 NW18      29.68F
EL CENTRO NAS  MOSUNNY   87  32  14 SW15G23   29.67F
IMPERIAL       SUNNY     84  40  21 S10       29.65F
BLYTHE         SUNNY     85  44  23 SE20      29.65F
$$

NVZ020-UTZ003-070000-
SOUTHERN NEVADA-UTAH

CITY           SKY/WX    TMP DP  RH WIND       PRES   REMARKS
LAS VEGAS      NOT AVBL
SALT LAKE CITY CLOUDY    57  47  69 E8        29.72F
$$

NMZ009-TXZ055-070000-
NEW MEXICO-WEST TEXAS

CITY           SKY/WX    TMP DP  RH WIND       PRES   REMARKS
ALBUQUERQUE    PTSUNNY   67  40  37 SE6       29.85F
EL PASO        MOSUNNY   82  28  14 VRB6      29.80F
$$


........................KEY........................
SKY/WX - SKY CONDITION/WEATHER
TMP    - TEMPERATURE IN FAHRENHEIT
DP     - DEW POINT IN FAHRENHEIT
RH     - RELATIVE HUMIDITY IN PERCENT
WIND   - DIRECTION AND SPEED IN MILES PER HOUR (MPH)
VRB    - VARIABLE WIND DIRECTION
PRES   - MEAN SEA LEVEL PRESSURE IN INCHES OF MERCURY
         F - FALLING PRESSURE   R - RISING PRESSURE
         S - STEADY PRESSURE
VSB    - VISIBILITY IN MILES
HX     - HEAT INDEX IN FAHRENHEIT
WCI    - WIND CHILL INDEX IN FAHRENHEIT
TC     - TEMPERATURE IN CELSIUS WHICH IS ALSO KNOWN AS
         TEMPERATURE IN CENTIGRADE
AFB    - AIR FORCE BASE
         LUKE AFB IS LUKE AIR FORCE BASE
         DAVIS-MONTHAN IS DAVIS-MONTHAN AIR FORCE BASE
NAS    - NAVAL AIR STATION
         EL CENTRO NAS IS EL CENTRO NAVAL AIR STATION
N/A    - NOT AVAILABLE



USA.gov is the U.S. government's official web portal to all federal, state and local government web resources and services.